Location: Roland
(31.1349°N, 85.4372°W)
Time: 04:11:12
(UTC+00:00)

Courier 1B - Pass Details

Date: 25 April 2021
Orbit: 962 x 1209 km, 28.3° (Epoch: 07 May)

Event Time Altitude Azimuth Distance (km) Brightness Sun altitude
Rises 14:21:34 0° 223° (SW) 3,984 10.4 41.3°
Reaches altitude 10° 14:24:49 10° 213° (SSW) 2,986 10.0 42.0°
Maximum altitude 14:30:55 29° 156° (SSE) 1,865 9.8 43.3°
Drops below altitude 10° 14:36:44 10° 99° (E) 2,835 11.0 44.5°
Sets 14:39:43 0° 88° (E) 3,751 11.3 45.1°
